Cortez, CO

6:32 PM MDT on April 22, 2018 (GMT -0600)
Cortez Municipal

Weather History for KCEZ - January, 2014

Change the Weather History Date:

Thursday, January 2, 2014

  Actual Average Record
Temperature  
Mean Temperature 31 °F 27 °F  
Max Temperature 48 °F 40 °F 55 °F (2006)
Min Temperature 14 °F 14 °F -18 °F (2011)
Degree Days  
Heating Degree Days 34 38  
Month to date heating degree days 66 76  
Since 1 July heating degree days 2745 2734  
Cooling Degree Days 0 0  
Month to date cooling degree days 0 0  
Year to date cooling degree days 0 0  
Moisture  
Dew Point 12 °F    
Average Humidity 52    
Maximum Humidity 80    
Minimum Humidity 23    
Precipitation  
Precipitation 0.00 in 0.04 in 0.46 in (2004)
Month to date precipitation 0.00 0.08  
Year to date precipitation 0.00 0.08  
Sea Level Pressure  
Sea Level Pressure 30.36 in    
Wind  
Wind Speed 6 mph (ENE)    
Max Wind Speed 14 mph    
Max Gust Speed 17 mph    
Visibility 10 miles    
Events      
T = Trace of Precipitation, MM = Missing Value Source: NWS Daily Summary

Daily Weather History Graph

Daily Weather History Graph

Search for Another Location

Airport or City:

Astronomy

Jan. 02, 2014 Rise Set
Actual Time 7:28 AM MST 5:08 PM MST
Civil Twilight 6:59 AM MST 5:37 PM MST
Nautical Twilight 6:27 AM MST 6:10 PM MST
Astronomical Twilight 5:55 AM MST 6:41 PM MST
Moon 8:15 AM MST (1/2) 7:06 PM MST (1/2)
Length of Visible Light 10h 37m
Length of Day
9h 39m
Waxing Crescent, 3% of the Moon is Illuminated
Jan 2
Waxing Crescent
Jan 7
First Quarter
Jan 15
Full
Jan 23
Last Quarter
Jan 30
New

Hourly Weather History & Observations

Time (MST) Temp. Windchill Dew Point Humidity Pressure Visibility Wind Dir Wind Speed Gust Speed Precip Events Conditions
12:53 AM 16.0 °F 3.6 °F 10.9 °F 81% 30.35 in 10.0 mi ENE 10.4 mph - N/A   Clear
1:53 AM 16.0 °F 4.4 °F 10.9 °F 81% 30.36 in 10.0 mi ENE 9.2 mph - N/A   Clear
2:53 AM 16.0 °F 5.3 °F 10.9 °F 81% 30.35 in 10.0 mi ENE 8.1 mph - N/A   Clear
3:53 AM 16.0 °F 1.7 °F 10.9 °F 81% 30.37 in 10.0 mi ENE 13.8 mph - N/A   Clear
4:53 AM 15.1 °F 3.3 °F 9.0 °F 77% 30.39 in 10.0 mi ENE 9.2 mph - N/A   Clear
5:53 AM 14.0 °F 3.9 °F 9.0 °F 80% 30.41 in 10.0 mi ENE 6.9 mph - N/A   Clear
6:53 AM 15.1 °F 5.2 °F 8.1 °F 74% 30.45 in 10.0 mi East 6.9 mph - N/A   Clear
7:53 AM 15.1 °F 5.2 °F 9.0 °F 77% 30.48 in 10.0 mi ENE 6.9 mph - N/A   Clear
8:53 AM 25.0 °F 20.7 °F 12.0 °F 58% 30.48 in 10.0 mi NE 3.5 mph - N/A   Clear
9:53 AM 35.1 °F - 10.9 °F 37% 30.45 in 10.0 mi Calm Calm - N/A   Clear
10:53 AM 43.0 °F - 12.0 °F 28% 30.40 in 10.0 mi Calm Calm - N/A   Clear
11:53 AM 45.0 °F - 12.0 °F 26% 30.37 in 10.0 mi Calm Calm - N/A   Clear
12:53 PM 46.9 °F - 10.9 °F 23% 30.32 in 10.0 mi SSW 5.8 mph - N/A   Clear
1:53 PM 45.0 °F 38.9 °F 14.0 °F 29% 30.31 in 10.0 mi SW 12.7 mph - N/A   Clear
2:53 PM 45.0 °F 40.6 °F 14.0 °F 29% 30.30 in 10.0 mi SW 8.1 mph - N/A   Clear
3:53 PM 44.1 °F 40.8 °F 14.0 °F 30% 30.30 in 10.0 mi SSW 5.8 mph - N/A   Clear
4:53 PM 37.0 °F 33.3 °F 15.1 °F 41% 30.34 in 10.0 mi WSW 4.6 mph - N/A   Clear
5:53 PM 28.0 °F - 12.0 °F 51% 30.38 in 10.0 mi Calm Calm - N/A   Clear
6:53 PM 25.0 °F 16.3 °F 14.0 °F 63% 30.38 in 10.0 mi ENE 8.1 mph - N/A   Clear
7:53 PM 24.1 °F 18.2 °F 15.1 °F 69% 30.38 in 10.0 mi ENE 4.6 mph - N/A   Clear
8:53 PM 21.9 °F 13.4 °F 15.1 °F 75% 30.34 in 10.0 mi ENE 6.9 mph - N/A   Clear
9:53 PM 19.0 °F 13.9 °F 12.9 °F 77% 30.32 in 10.0 mi East 3.5 mph - N/A   Clear
10:53 PM 18.0 °F 11.1 °F 12.0 °F 78% 30.27 in 9.0 mi ENE 4.6 mph - N/A   Clear
11:53 PM 17.1 °F 8.7 °F 10.9 °F 77% 30.26 in 10.0 mi ENE 5.8 mph - N/A   Clear